GW3762 Weather Reports


Display with metric or nautical units.
time (UTC)temp
F
wind
direction
speed
MPH
gust
MPH
rain 1hr
in
rain 24hr
in
rain mn
in
humidity
%
barometer
mb
20260906144459 62 57 3.0 8.0 0.00 0.30 0.01 91 1016.4
20260906140959 61 49 7.0 12.0 0.00 0.30 0.01 92 1016.3
20260906140502 61 64 6.0 10.0 0.00 0.30 0.01 92 1016.3
20260906140002 61 81 10.0 10.0 0.00 0.30 0.01 93 1016.3
20260906135458 61 79 7.0 11.0 0.00 0.30 0.01 93 1016.2
20260906134959 60 68 8.0 11.0 0.00 0.30 0.01 93 1016.2
20260906134458 60 55 4.0 11.0 0.00 0.30 0.01 93 1016.2
20260906133959 60 63 4.0 10.0 0.00 0.30 0.01 93 1016.1
20260906133459 60 76 5.0 11.0 0.00 0.30 0.01 93 1016.1
20260906132958 60 47 4.0 11.0 0.00 0.30 0.01 94 1016.2
20260906132459 60 79 7.0 10.0 0.00 0.30 0.01 94 1016.2
20260906131958 59 53 3.0 9.0 0.00 0.30 0.01 93 1016.2
20260906131458 59 77 7.0 11.0 0.00 0.30 0.01 93 1016.1
20260906130958 59 71 5.0 11.0 0.00 0.30 0.01 93 1016.0
20260906130459 59 71 4.0 11.0 0.00 0.30 0.01 93 1016.0
20260906130001 59 63 3.0 12.0 0.00 0.30 0.01 94 1015.9
20260906125459 59 14 5.0 12.0 0.00 0.30 0.01 93 1016.0
20260906124959 59 69 5.0 10.0 0.00 0.30 0.01 93 1015.9
20260906124459 59 74 7.0 8.0 0.00 0.30 0.01 93 1016.0
20260906122959 59 79 7.0 11.0 0.00 0.30 0.01 93 1015.6
20260906122459 59 76 9.0 10.0 0.00 0.30 0.01 93 1015.6
20260906121959 59 70 4.0 10.0 0.00 0.30 0.01 93 1015.5
20260906121501 59 73 5.0 11.0 0.00 0.30 0.01 93 1015.4
20260906120958 59 71 6.0 11.0 0.00 0.30 0.01 93 1015.3
20260906120459 59 56 5.0 12.0 0.00 0.30 0.01 93 1015.4
20260906115958 59 80 8.0 11.0 0.00 0.30 0.01 93 1015.4
20260906115459 59 68 9.0 11.0 0.00 0.30 0.01 93 1015.3
20260906114959 59 87 5.0 9.0 0.00 0.30 0.01 93 1015.2
20260906114500 59 65 3.0 8.0 0.00 0.30 0.01 93 1015.2
20260906113958 59 53 3.0 8.0 0.00 0.30 0.01 93 1015.2
20260906113459 59 82 3.0 10.0 0.00 0.30 0.01 93 1015.0
20260906112958 58 71 3.0 9.0 0.00 0.30 0.01 93 1014.9
20260906111958 58 80 4.0 8.0 0.00 0.30 0.01 93 1014.8
20260906111459 58 67 5.0 7.0 0.00 0.30 0.01 93 1014.9
20260906110959 58 65 2.0 5.0 0.00 0.30 0.01 93 1014.8
20260906110000 58 58 4.0 6.0 0.00 0.30 0.01 93 1014.5
20260906104958 58 60 5.0 6.0 0.00 0.30 0.01 93 1014.5
20260906103958 58 66 3.0 6.0 0.00 0.30 0.01 93 1014.3
20260906103458 58 61 4.0 5.0 0.00 0.30 0.01 93 1014.2
20260906102958 58 84 3.0 7.0 0.00 0.30 0.01 93 1014.1
20260906102458 58 69 4.0 8.0 0.00 0.30 0.01 93 1014.3
20260906101958 58 74 5.0 7.0 0.00 0.30 0.01 94 1014.2
20260906101458 58 67 4.0 7.0 0.00 0.30 0.01 94 1014.2
20260906100459 57 67 4.0 6.0 0.00 0.30 0.01 93 1014.0
20260906095458 57 76 5.0 9.0 0.00 0.30 0.01 94 1013.8
20260906094959 57 55 6.0 8.0 0.00 0.30 0.01 94 1013.8
20260906094459 57 73 4.0 6.0 0.00 0.30 0.01 94 1013.8
20260906094000 58 61 3.0 5.0 0.00 0.30 0.01 94 1013.8
20260906093458 57 54 3.0 6.0 0.00 0.30 0.01 94 1013.7
20260906092959 57 68 3.0 4.0 0.00 0.30 0.01 94 1013.8
20260906092458 57 73 3.0 4.0 0.00 0.30 0.01 94 1013.7
20260906091958 58 70 3.0 6.0 0.00 0.30 0.01 94 1013.6
20260906091459 58 74 3.0 6.0 0.00 0.30 0.01 94 1013.5
20260906090458 58 78 3.0 6.0 0.00 0.30 0.01 94 1013.5
20260906085958 58 58 3.0 9.0 0.00 0.30 0.01 94 1013.4
20260906085457 58 79 4.0 9.0 0.00 0.30 0.01 94 1013.5
20260906083957 59 69 9.0 11.0 0.00 0.30 0.01 94 1013.5
20260906083457 59 58 5.0 10.0 0.00 0.30 0.01 94 1013.5
20260906082957 59 68 4.0 10.0 0.00 0.30 0.01 94 1013.6
20260906082457 59 70 4.0 9.0 0.00 0.30 0.01 94 1013.6
20260906081957 59 39 6.0 9.0 0.00 0.30 0.01 94 1013.5
20260906081458 59 73 8.0 9.0 0.00 0.30 0.01 94 1013.5
20260906080957 60 77 5.0 9.0 0.00 0.30 0.01 94 1013.5
20260906080458 60 70 4.0 8.0 0.00 0.30 0.01 94 1013.4
20260906080001 60 73 5.0 5.0 0.00 0.30 0.01 94 1013.3
20260906075458 60 59 2.0 5.0 0.00 0.30 0.01 94 1013.3
20260906074959 60 80 4.0 5.0 0.00 0.30 0.01 94 1013.3
20260906074458 60 64 3.0 5.0 0.00 0.30 0.01 94 1013.2
20260906073959 60 77 5.0 5.0 0.00 0.30 0.01 94 1013.3
20260906073458 60 78 4.0 4.0 0.00 0.30 0.01 94 1013.3
20260906072959 60 77 1.0 2.0 0.00 0.30 0.01 94 1013.3
20260906071459 59 77 0.0 4.0 0.00 0.30 0.01 94 1013.4
20260906070959 59 54 2.0 4.0 0.00 0.30 0.01 94 1013.4
20260906070458 59 59 3.0 4.0 0.00 0.30 0.01 94 1013.4
20260906065457 59 54 0.0 3.0 0.01 0.30 0.01 94 1013.3
20260906064957 59 65 2.0 4.0 0.01 0.30 0.01 94 1013.4
20260906064458 59 62 3.0 4.0 0.01 0.30 0.01 94 1013.4
20260906063957 59 65 3.0 3.0 0.01 0.30 0.01 94 1013.4
20260906063457 59 65 2.0 2.0 0.01 0.30 0.01 94 1013.5
20260906062958 59 65 0.0 2.0 0.01 0.30 0.01 94 1013.5
20260906062458 59 65 2.0 2.0 0.01 0.30 0.01 94 1013.6
20260906061957 59 65 0.0 3.0 0.01 0.30 0.01 94 1013.7
20260906061457 59 65 2.0 4.0 0.01 0.30 0.01 94 1013.7
20260906060958 59 57 3.0 4.0 0.01 0.30 0.01 94 1013.7
20260906060457 59 36 0.0 2.0 0.01 0.30 0.01 94 1013.5
20260906055958 59 69 0.0 0.0 0.00 0.29 0.00 94 1013.6
20260906055458 59 69 0.0 0.0 0.00 0.29 0.00 94 1013.6
20260906054957 59 69 0.0 0.0 0.00 0.29 0.00 94 1013.7
20260906054458 59 69 0.0 0.0 0.00 0.29 0.00 94 1013.6
20260906053957 59 69 0.0 1.0 0.00 0.29 0.00 94 1013.6
20260906052958 59 69 2.0 9.0 0.00 0.29 0.00 94 1013.6
20260906052457 59 65 1.0 9.0 0.00 0.29 0.00 94 1013.6
20260906051957 59 42 1.0 4.0 0.00 0.29 0.00 94 1013.6
20260906051457 59 55 2.0 4.0 0.00 0.29 0.00 94 1013.6
20260906050458 59 55 3.0 9.0 0.00 0.29 0.00 94 1013.7
20260906050002 59 58 1.0 9.0 0.00 0.29 0.00 94 1013.7
20260906045501 59 80 4.0 6.0 0.00 0.29 0.00 94 1013.7
20260906045001 59 40 4.0 6.0 0.00 0.29 0.00 94 1013.8
20260906044500 59 68 6.0 6.0 0.00 0.29 0.00 94 1013.8
20260906044001 59 53 3.0 5.0 0.00 0.29 0.00 94 1013.8
20260906043501 60 54 2.0 9.0 0.00 0.29 0.00 94 1013.8
20260906043000 60 73 2.0 12.0 0.00 0.29 0.00 94 1013.7
20260906042500 61 57 5.0 12.0 0.00 0.29 0.00 94 1013.5
20260906042001 62 45 6.0 10.0 0.00 0.29 0.00 94 1013.5
20260906041501 63 73 2.0 4.0 0.00 0.29 0.00 94 1013.4
20260906041000 63 67 0.0 0.0 0.00 0.29 0.00 94 1013.4
20260906040500 63 67 0.0 0.0 0.00 0.29 0.00 94 1013.4
20260906040004 63 67 0.0 0.0 0.00 0.29 0.00 95 1013.3
20260906035000 62 67 0.0 0.0 0.00 0.29 0.29 94 1013.3
20260906034000 62 67 0.0 0.0 0.00 0.29 0.29 94 1013.3
20260906033501 62 67 0.0 0.0 0.00 0.29 0.29 94 1013.2
20260906033000 62 67 0.0 0.0 0.00 0.29 0.29 94 1013.1
20260906032501 62 67 0.0 0.0 0.00 0.29 0.29 94 1013.2
20260906032001 62 67 0.0 0.0 0.00 0.29 0.29 94 1013.1
20260906031001 62 67 0.0 1.0 0.00 0.29 0.29 94 1012.9
20260906030500 62 67 1.0 1.0 0.01 0.29 0.29 94 1013.0
20260906030004 62 67 0.0 0.0 0.01 0.29 0.29 94 1013.1
20260906025500 62 67 0.0 2.0 0.01 0.29 0.29 94 1013.2
20260906025000 62 67 0.0 4.0 0.03 0.29 0.29 93 1013.2
20260906024500 63 68 0.0 4.0 0.05 0.29 0.29 93 1013.2
20260906024001 63 82 1.0 3.0 0.10 0.29 0.29 93 1013.0
20260906023500 63 82 1.0 3.0 0.29 0.29 0.29 93 1013.0
20260906022501 63 51 4.0 4.0 0.29 0.29 0.29 93 1013.1
20260906022000 63 47 3.0 5.0 0.29 0.29 0.29 93 1013.1
20260906021501 63 53 1.0 5.0 0.29 0.29 0.29 93 1013.1
20260906021001 63 63 3.0 4.0 0.29 0.29 0.29 93 1013.0
20260906020500 64 52 2.0 7.0 0.28 0.28 0.28 93 1013.0
20260906020000 64 54 1.0 7.0 0.28 0.28 0.28 93 1013.0
20260906015459 64 42 2.0 6.0 0.28 0.28 0.28 93 1013.0
20260906013959 64 65 1.0 6.0 0.17 0.17 0.17 93 1013.0
20260906013459 64 43 5.0 5.0 0.00 0.00 0.00 92 1012.8
20260906012959 65 72 2.0 2.0 0.00 0.00 0.00 92 1012.7
20260906012459 64 72 0.0 1.0 0.00 0.00 0.00 92 1012.7
20260906011959 64 72 0.0 3.0 0.00 0.00 0.00 92 1012.8
20260906011500 64 72 0.0 3.0 0.00 0.00 0.00 92 1012.7
20260906010959 64 72 0.0 0.0 0.00 0.00 0.00 91 1012.7
20260906010501 65 72 0.0 0.0 0.00 0.00 0.00 91 1012.5
20260906010003 65 72 0.0 0.0 0.00 0.00 0.00 91 1012.5
20260906005501 65 72 0.0 0.0 0.00 0.00 0.00 90 1012.4
20260906005000 65 72 0.0 0.0 0.00 0.00 0.00 90 1012.5
20260906003000 66 72 2.0 3.0 0.00 0.00 0.00 86 1012.4
20260906002500 67 72 2.0 4.0 0.00 0.00 0.00 86 1012.2
20260906001959 67 62 1.0 4.0 0.00 0.00 0.00 85 1012.0
20260906001459 67 44 2.0 6.0 0.00 0.00 0.00 84 1012.0
20260906001001 67 39 4.0 6.0 0.00 0.00 0.00 83 1011.9
20260906000500 67 65 4.0 7.0 0.00 0.00 0.00 83 1011.9
20260905235959 67 53 2.0 4.0 0.00 0.00 0.00 82 1011.9
20260905235459 68 81 2.0 5.0 0.00 0.00 0.00 82 1011.9
20260905234959 68 67 3.0 7.0 0.00 0.00 0.00 82 1011.9
20260905234459 68 71 3.0 7.0 0.00 0.00 0.00 82 1011.8
20260905232959 68 66 4.0 5.0 0.00 0.00 0.00 82 1011.6
20260905232459 68 68 3.0 5.0 0.00 0.00 0.00 82 1011.7
20260905231959 69 82 5.0 5.0 0.00 0.00 0.00 82 1011.5
20260905230959 69 78 3.0 4.0 0.00 0.00 0.00 81 1011.5
20260905230459 69 68 3.0 5.0 0.00 0.00 0.00 80 1011.4
20260905230002 69 78 4.0 5.0 0.00 0.00 0.00 79 1011.4
20260905225459 69 57 0.0 3.0 0.00 0.00 0.00 80 1011.3
20260905225000 70 57 0.0 1.0 0.00 0.00 0.00 80 1011.3
20260905224501 70 57 0.0 4.0 0.00 0.00 0.00 80 1011.3
20260905223959 70 57 2.0 4.0 0.00 0.00 0.00 79 1011.3
20260905223459 70 69 3.0 3.0 0.00 0.00 0.00 80 1011.4
20260905223000 70 65 2.0 3.0 0.00 0.00 0.00 81 1011.4
20260905222500 70 65 2.0 3.0 0.00 0.00 0.00 81 1011.4
20260905222000 70 65 0.0 3.0 0.00 0.00 0.00 80 1011.2
20260905221500 70 65 0.0 3.0 0.00 0.00 0.00 81 1011.2
20260905221001 70 73 1.0 3.0 0.00 0.00 0.00 81 1011.2
20260905220459 70 73 0.0 3.0 0.00 0.00 0.00 80 1011.1
20260905220001 70 73 2.0 2.0 0.00 0.00 0.00 81 1011.2
20260905215458 70 283 0.0 2.0 0.00 0.00 0.00 81 1011.2
20260905213959 70 283 0.0 1.0 0.00 0.00 0.00 82 1011.0
20260905213459 70 283 0.0 1.0 0.00 0.00 0.00 80 1010.9
20260905212959 70 283 0.0 1.0 0.00 0.00 0.00 82 1010.9
20260905212459 70 283 0.0 2.0 0.00 0.00 0.00 81 1010.9
20260905211959 71 283 1.0 2.0 0.00 0.00 0.00 81 1010.9
20260905211459 71 283 0.0 3.0 0.00 0.00 0.00 79 1010.9
20260905210959 71 283 2.0 3.0 0.00 0.00 0.00 78 1010.8
20260905210459 71 96 1.0 2.0 0.00 0.00 0.00 79 1010.6
20260905205459 72 308 0.0 2.0 0.00 0.00 0.00 76 1010.6
20260905204958 72 99 0.0 2.0 0.00 0.00 0.00 76 1010.5
20260905203959 72 103 0.0 6.0 0.00 0.00 0.00 71 1010.4
20260905203459 72 101 0.0 6.0 0.00 0.00 0.00 73 1010.4
20260905203000 72 63 1.0 3.0 0.00 0.00 0.00 73 1010.5
20260905202506 72 63 0.0 5.0 0.00 0.00 0.00 72 1010.5
20260905201458 72 59 1.0 4.0 0.00 0.00 0.00 74 1010.6
20260905200959 72 54 3.0 5.0 0.00 0.00 0.00 73 1010.6
20260905200004 72 348 1.0 3.0 0.00 0.00 0.00 75 1010.5
20260905195459 73 81 0.0 3.0 0.00 0.00 0.00 76 1010.5
20260905194500 72 59 1.0 7.0 0.00 0.00 0.00 71 1010.5
20260905194000 73 76 3.0 9.0 0.00 0.00 0.00 71 1010.5
20260905193500 73 70 0.0 9.0 0.00 0.00 0.00 74 1010.4
20260905193001 73 96 6.0 9.0 0.00 0.00 0.00 74 1010.5
20260905192459 73 82 0.0 3.0 0.00 0.00 0.00 73 1010.5
20260905192000 73 76 0.0 2.0 0.00 0.00 0.00 73 1010.4
20260905191500 73 360 1.0 6.0 0.00 0.00 0.00 73 1010.5
20260905191000 73 355 1.0 8.0 0.00 0.00 0.00 72 1010.6
20260905185959 72 35 3.0 8.0 0.00 0.00 0.00 72 1010.6
20260905185500 72 61 3.0 8.0 0.00 0.00 0.00 72 1010.6
20260905184959 71 89 4.0 5.0 0.00 0.00 0.00 76 1010.6
20260905184459 70 76 2.0 5.0 0.00 0.00 0.00 76 1010.6
20260905183959 70 82 3.0 6.0 0.00 0.00 0.00 77 1010.7
20260905183459 70 69 3.0 6.0 0.00 0.00 0.00 77 1010.8
20260905182459 71 101 6.0 10.0 0.00 0.00 0.00 75 1010.7
20260905182000 72 102 6.0 10.0 0.00 0.00 0.00 73 1010.8
20260905181001 74 83 4.0 7.0 0.00 0.00 0.00 71 1010.7
20260905180459 74 42 3.0 9.0 0.00 0.00 0.00 73 1010.8
20260905175958 72 46 2.0 9.0 0.00 0.00 0.00 72 1010.9
20260905175458 73 59 4.0 9.0 0.00 0.00 0.00 73 1010.9
20260905174959 73 90 1.0 5.0 0.00 0.00 0.00 73 1010.9
20260905174502 73 71 3.0 5.0 0.00 0.00 0.00 72 1010.9
20260905173959 73 70 0.0 10.0 0.00 0.00 0.00 75 1010.8
20260905172959 73 45 5.0 8.0 0.00 0.00 0.00 73 1010.8
20260905172459 74 61 0.0 5.0 0.00 0.00 0.00 73 1010.8
20260905171459 73 62 0.0 6.0 0.00 0.00 0.00 76 1010.9
20260905170959 73 33 1.0 9.0 0.00 0.00 0.00 71 1010.8
20260905170458 74 49 5.0 9.0 0.00 0.00 0.00 69 1010.9
20260905170002 74 38 5.0 8.0 0.00 0.00 0.00 71 1010.8
20260905165459 73 85 5.0 10.0 0.00 0.00 0.00 72 1010.8
20260905165000 73 57 9.0 10.0 0.00 0.00 0.00 73 1010.8
20260905164500 73 11 4.0 10.0 0.00 0.00 0.00 72 1010.7
20260905163959 72 83 7.0 10.0 0.00 0.00 0.00 73 1010.8
20260905163459 73 42 4.0 9.0 0.00 0.00 0.00 70 1010.9
20260905162958 74 69 6.0 9.0 0.00 0.00 0.00 68 1010.7
20260905162459 75 76 4.0 6.0 0.00 0.00 0.00 67 1010.6
20260905161959 74 51 1.0 9.0 0.00 0.00 0.00 72 1010.7
20260905160959 73 82 3.0 8.0 0.00 0.00 0.00 68 1010.8
20260905160001 75 101 6.0 9.0 0.00 0.00 0.00 66 1010.7
20260905155500 74 59 2.0 6.0 0.00 0.00 0.00 69 1010.7
20260905154959 74 109 1.0 6.0 0.00 0.00 0.00 69 1010.8
20260905154459 73 44 4.0 10.0 0.00 0.00 0.00 69 1010.8
20260905153959 73 64 4.0 10.0 0.00 0.00 0.00 70 1010.9
20260905153003 73 74 2.0 5.0 0.00 0.00 0.00 71 1010.9
20260905152458 73 27 1.0 6.0 0.00 0.00 0.00 74 1010.9
20260905151500 72 81 3.0 13.0 0.00 0.00 0.00 71 1010.9
20260905151000 71 73 3.0 10.0 0.00 0.00 0.00 73 1010.9
20260905150458 71 44 3.0 9.0 0.00 0.00 0.00 74 1011.0
20260905150003 71 360 1.0 4.0 0.00 0.00 0.00 79 1011.0
20260905145458 71 302 1.0 4.0 0.00 0.00 0.00 79 1011.0
20260905144957 71 26 0.0 6.0 0.00 0.00 0.00 80 1010.9